TimeCST,TemperatureF,Dew PointF,Humidity,Sea Level PressureIn,VisibilityMPH,Wind Direction,Wind SpeedMPH,Gust SpeedMPH,PrecipitationIn,Events,Conditions,WindDirDegrees,DateUTC
12:01 AM,57.2,53.6,88,30.01,1.0,Calm,Calm,-,N/A,,Haze,0,2012-12-09 06:01:00
12:07 AM,57.2,53.6,88,30.02,0.2,Calm,Calm,-,N/A,,Haze,0,2012-12-09 06:07:00
12:56 AM,55.0,52.0,89,29.97,0.2,Calm,Calm,-,N/A,Fog,Fog,0,2012-12-09 06:56:00
1:56 AM,53.1,48.9,86,29.97,0.2,Calm,Calm,-,N/A,Fog,Fog,0,2012-12-09 07:56:00
2:56 AM,54.0,50.0,86,29.97,0.5,Calm,Calm,-,N/A,Fog,Fog,0,2012-12-09 08:56:00
3:46 AM,53.6,48.2,82,30.01,0.2,Calm,Calm,-,N/A,Fog,Fog,0,2012-12-09 09:46:00
3:56 AM,53.1,48.9,86,29.98,0.2,Calm,Calm,-,N/A,Fog,Fog,0,2012-12-09 09:56:00
4:56 AM,57.0,53.1,87,29.99,0.2,East,3.5,-,N/A,Fog,Fog,100,2012-12-09 10:56:00
5:56 AM,57.0,54.0,89,30.00,0.2,Calm,Calm,-,N/A,Fog,Fog,0,2012-12-09 11:56:00
6:56 AM,59.0,55.0,87,30.02,0.2,Calm,Calm,-,N/A,Fog,Fog,0,2012-12-09 12:56:00
7:56 AM,61.0,57.0,87,30.04,0.2,ESE,4.6,-,N/A,Fog,Fog,110,2012-12-09 13:56:00
8:56 AM,63.0,59.0,87,30.05,0.2,ESE,4.6,-,N/A,Fog,Fog,110,2012-12-09 14:56:00
9:42 AM,64.4,60.8,88,30.09,1.0,East,4.6,-,N/A,,Overcast,90,2012-12-09 15:42:00
9:52 AM,66.2,62.6,88,30.09,3.0,ESE,3.5,-,N/A,,Overcast,110,2012-12-09 15:52:00
9:56 AM,66.0,62.1,87,30.05,4.0,ESE,3.5,-,N/A,,Overcast,110,2012-12-09 15:56:00
10:28 AM,66.2,62.6,88,30.08,10.0,ESE,4.6,-,N/A,,Mostly Cloudy,120,2012-12-09 16:28:00
10:56 AM,72.0,62.1,71,30.03,10.0,Variable,3.5,-,N/A,,Scattered Clouds,0,2012-12-09 16:56:00
11:43 AM,75.2,60.8,61,30.05,10.0,South,9.2,-,N/A,,Overcast,180,2012-12-09 17:43:00
11:56 AM,75.0,60.1,60,30.00,10.0,South,8.1,-,N/A,,Mostly Cloudy,180,2012-12-09 17:56:00
12:56 PM,75.9,61.0,60,29.97,10.0,South,12.7,-,N/A,,Mostly Cloudy,180,2012-12-09 18:56:00
1:56 PM,73.9,61.0,64,29.97,10.0,South,11.5,-,N/A,,Overcast,180,2012-12-09 19:56:00
2:56 PM,75.9,61.0,60,29.96,10.0,South,10.4,-,N/A,,Partly Cloudy,170,2012-12-09 20:56:00
3:56 PM,73.9,61.0,64,29.96,10.0,South,11.5,-,N/A,,Mostly Cloudy,180,2012-12-09 21:56:00
4:56 PM,70.0,61.0,73,29.96,10.0,SSE,8.1,-,N/A,,Mostly Cloudy,160,2012-12-09 22:56:00
5:56 PM,66.9,61.0,81,29.96,10.0,SE,5.8,-,N/A,,Scattered Clouds,140,2012-12-09 23:56:00
6:56 PM,66.9,61.0,81,29.96,10.0,SE,4.6,-,N/A,,Mostly Cloudy,130,2012-12-10 00:56:00
7:10 PM,68.0,62.6,83,29.99,10.0,SE,3.5,-,N/A,,Mostly Cloudy,130,2012-12-10 01:10:00
7:56 PM,68.0,63.0,84,29.96,10.0,SSE,6.9,-,N/A,,Overcast,150,2012-12-10 01:56:00
8:16 PM,66.2,62.6,88,30.00,10.0,SE,5.8,-,N/A,,Mostly Cloudy,140,2012-12-10 02:16:00
8:56 PM,66.9,62.1,84,29.95,10.0,SSE,5.8,-,N/A,,Mostly Cloudy,150,2012-12-10 02:56:00
9:10 PM,68.0,62.6,83,29.99,10.0,SSE,8.1,-,N/A,,Mostly Cloudy,160,2012-12-10 03:10:00
9:42 PM,68.0,62.6,83,29.98,10.0,SSE,6.9,-,N/A,,Scattered Clouds,160,2012-12-10 03:42:00
9:56 PM,68.0,63.0,84,29.94,10.0,South,6.9,-,N/A,,Partly Cloudy,170,2012-12-10 03:56:00
10:56 PM,69.1,63.0,81,29.93,10.0,South,9.2,-,N/A,,Clear,170,2012-12-10 04:56:00
11:56 PM,68.0,63.0,84,29.91,10.0,South,8.1,-,N/A,,Partly Cloudy,170,2012-12-10 05:56:00